This demonstration page uses our WeatherBlox Daily Observations layout. Learn more.

Left ArrowRight Arrow

39.01783, -85.05884

Hourly Observations for April 26, 2020

Temp ( °F °C ) Dew Point ( °F °C ) Humidity (%) Winds ( mph kmh ) Pressure ( in mb ) Visibility ( mi km ) Precip ( " mm )
12:33 am 00:33 Cloudy with Light Rain 56 13.3 53 11.7 90 90 NNE 5 7 29.69 1005 6 10 0.03 0.76
12:52 am 00:52 Cloudy with Light Rain 56 13.3 53 11.7 90 90 N 5 7 29.67 1005 5 8 0.04 1.02
1:20 am 01:20 Cloudy with Light Rain 55 12.8 53 11.7 93 93 NNW 6 9 29.69 1005 5 8 0.01 0.25
1:31 am 01:31 Cloudy with Light Rain 55 12.8 53 11.7 93 93 NNW 10 17 29.69 1005 4 6 0.01 0.25
1:42 am 01:42 Cloudy with Light Rain 54 12.2 51 10.6 90 90 NNW 14 22 29.69 1006 5 8 0.01 0.25
1:52 am 01:52 Cloudy with Light Rain 53 11.7 51 10.6 93 93 N 14 22 29.67 1005 5 8 0.02 0.51
2:48 am 02:48 Cloudy with Light Rain 52 11 48 9 88 88 NNW 10 17 29.70 1006 4 6 0.02 0.51
2:52 am 02:52 Cloudy with Light Rain 51 10.6 49 9.4 92 92 NNW 14 22 29.67 1005 4 6 0.02 0.51
3:26 am 03:26 Cloudy with Light Rain 50 10 47 8.3 89 89 N 12 19 29.69 1005 6 10 0.02 0.51
3:52 am 03:52 Cloudy with Light Rain 50 10 47 8.3 89 89 N 10 17 29.67 1005 6 10 0.02 0.51
4:52 am 04:52 Cloudy with Light Rain 49 9.4 46 7.8 90 90 N 14 22 29.68 1005 5 8 0.02 0.51
5:52 am 05:52 Cloudy with Light Rain 47 8.3 44 6.7 90 90 N 14 22 29.71 1006 9 14 0.01 0.25
6:52 am 06:52 Cloudy with Light Rain 46 7.8 43 6.1 89 89 NNW 14 22 29.72 1007 9 14 0.00 0.00
7:31 am 07:31 Cloudy with Light Rain 46 7.8 43 6.1 89 89 N 15 24 29.76 1008 3 4 0.00 0.00
7:40 am 07:40 Cloudy with Rain 46 7.8 43 6.1 89 89 NNW 14 22 29.77 1008 2 2 0.01 0.25
7:52 am 07:52 Cloudy with Light Rain 46 7.8 43 6.1 89 89 N 16 26 29.74 1007 3 4 0.02 0.51
8:00 am 08:00 Cloudy with Rain 45 7.2 43 6.1 93 93 N 16 26 29.77 1008 2 2 0.01 0.25
8:23 am 08:23 Cloudy with Light Rain 45 7.2 43 6.1 93 93 N 10 17 29.78 1008 3 5 0.03 0.76
8:52 am 08:52 Cloudy with Light Rain 45 7.2 42 5.6 90 90 NNW 16 26 29.77 1008 5 8 0.03 0.76
9:52 am 09:52 Cloudy with Light Rain 45 7.2 41 5 86 86 NW 16 26 29.78 1009 4 6 0.01 0.25
10:52 am 10:52 Cloudy with Light Rain 45 7.2 42 5.6 90 90 NNW 20 31 29.80 1009 7 11 0.02 0.51
11:52 am 11:52 Cloudy with Light Rain 47 8.3 43 6.1 86 86 NNW 22 35 29.82 1010 3 5 0.01 0.25
12:29 pm 12:29 Cloudy with Light Rain 47 8.3 43 6.1 86 86 NNW 21 33 29.86 1011 6 10 0.01 0.25
12:52 pm 12:52 Cloudy with Light Rain 47 8.3 43 6.1 86 86 NNW 20 31 29.84 1011 7 11 0.01 0.25
1:32 pm 13:32 Cloudy with Light Rain 48 8.9 44 6.7 86 86 NW 14 22 29.86 1011 7 11 0.01 0.25
1:52 pm 13:52 Cloudy with Light Rain 48 8.9 44 6.7 86 86 NW 14 22 29.85 1011 8 13 0.01 0.25
2:52 pm 14:52 Cloudy with Light Rain 51 10.6 45 7.2 80 80 NNW 14 22 29.88 1012 7 11 0.02 0.51
3:52 pm 15:52 Cloudy with Light Rain 50 10 44 6.7 80 80 NNW 17 28 29.92 1013 6 10 0.04 1.02
4:12 pm 16:12 Cloudy with Light Rain 50 10 44 6.7 80 80 NNW 21 33 29.94 1014 7 11 0.02 0.51
4:52 pm 16:52 Cloudy with Light Rain 51 10.6 43 6.1 74 74 NNW 17 28 29.95 1014 9 14 0.02 0.51
5:52 pm 17:52 Cloudy 53 11.7 42 5.6 66 66 N 15 24 29.98 1015 10 16 0.00 0.00
6:52 pm 18:52 Mostly Cloudy 54 12.2 42 5.6 64 64 N 14 22 30.01 1016 10 16 N/A
7:52 pm 19:52 Mostly Cloudy 53 11.7 42 5.6 66 66 N 7 11 30.03 1017 10 16 N/A
8:52 pm 20:52 Mostly Clear 50 10 42 5.6 74 74 N N/A 30.06 1018 10 16 N/A
9:52 pm 21:52 Mostly Clear 46 7.8 41 5 83 83 N N/A 30.08 1019 10 16 N/A
10:52 pm 22:52 Mostly Cloudy 44 6.7 40 4.4 85 85 E 3 6 30.11 1020 10 16 N/A
11:52 pm 23:52 Partly Cloudy 44 6.7 41 5 89 89 N N/A 30.13 1020 10 16 N/A

Powered by AerisWeather